contact:dominique.lefevre@mio.osupytheas.fr, maurice.libes@osupytheas.fr, didier.mallarino@osupytheas.fr
Project:EMSO http://www.emso-fr.org/EMSO-France
Depth: 2436.0 m
Title:EMSO Ligure Ouest : Data MII capteur MICROCAT
DateTime_Computer,Latitude,Longitude,Temperature,Conductivity,Pressure,DateTime_Instrument
DateTime_Computer,Latitude,Longitude,degC,S m-1,dbar,DateTime_Instrument
2021-12-07T00:01:59Z,42.805,6.029,13.2996,4.60033,2470.273,2021-12-07T02:03:26Z
2021-12-07T00:05:02Z,42.805,6.029,13.3008,4.60042,2470.25,2021-12-07T02:06:29Z
2021-12-07T00:08:05Z,42.805,6.029,13.3004,4.60056,2470.287,2021-12-07T02:09:33Z
2021-12-07T00:11:08Z,42.805,6.029,13.2998,4.60038,2470.264,2021-12-07T02:12:36Z
2021-12-07T00:14:11Z,42.805,6.029,13.3004,4.60057,2470.227,2021-12-07T02:15:39Z
2021-12-07T00:17:14Z,42.805,6.029,13.2994,4.60033,2470.217,2021-12-07T02:18:42Z
2021-12-07T00:20:17Z,42.805,6.029,13.3001,4.60045,2470.227,2021-12-07T02:21:45Z
2021-12-07T00:23:20Z,42.805,6.029,13.2997,4.60032,2470.24,2021-12-07T02:24:48Z
2021-12-07T00:26:23Z,42.805,6.029,13.3000,4.60038,2470.25,2021-12-07T02:27:51Z
2021-12-07T00:29:27Z,42.805,6.029,13.2997,4.60035,2470.213,2021-12-07T02:30:54Z
2021-12-07T00:32:30Z,42.805,6.029,13.2995,4.60031,2470.25,2021-12-07T02:33:57Z
2021-12-07T00:35:33Z,42.805,6.029,13.3000,4.60028,2470.217,2021-12-07T02:37:01Z
2021-12-07T00:38:36Z,42.805,6.029,13.2996,4.60034,2470.203,2021-12-07T02:40:04Z
2021-12-07T00:41:39Z,42.805,6.029,13.3001,4.60044,2470.203,2021-12-07T02:43:07Z
2021-12-07T00:44:42Z,42.805,6.029,13.3001,4.60036,2470.227,2021-12-07T02:46:10Z
2021-12-07T00:47:45Z,42.805,6.029,13.2994,4.60031,2470.24,2021-12-07T02:49:13Z
2021-12-07T00:50:48Z,42.805,6.029,13.3005,4.60039,2470.24,2021-12-07T02:52:16Z
2021-12-07T00:53:52Z,42.805,6.029,13.3000,4.60029,2470.203,2021-12-07T02:55:19Z
2021-12-07T00:56:55Z,42.805,6.029,13.3005,4.60033,2470.203,2021-12-07T02:58:22Z
2021-12-07T00:59:58Z,42.805,6.029,13.3004,4.60040,2470.203,2021-12-07T03:01:26Z
2021-12-07T01:03:01Z,42.805,6.029,13.2996,4.60040,2470.18,2021-12-07T03:04:29Z
2021-12-07T01:06:04Z,42.805,6.029,13.3001,4.60029,2470.203,2021-12-07T03:07:32Z
2021-12-07T01:09:07Z,42.805,6.029,13.3000,4.60026,2470.217,2021-12-07T03:10:35Z
2021-12-07T01:12:10Z,42.805,6.029,13.3001,4.60035,2470.203,2021-12-07T03:13:38Z
2021-12-07T01:15:13Z,42.805,6.029,13.2998,4.60042,2470.227,2021-12-07T03:16:41Z
2021-12-07T01:18:16Z,42.805,6.029,13.3001,4.60035,2470.227,2021-12-07T03:19:44Z
2021-12-07T01:21:20Z,42.805,6.029,13.2999,4.60061,2470.203,2021-12-07T03:22:47Z
2021-12-07T01:24:23Z,42.805,6.029,13.3003,4.60062,2470.203,2021-12-07T03:25:50Z
2021-12-07T01:27:26Z,42.805,6.029,13.3008,4.60047,2470.194,2021-12-07T03:28:54Z
2021-12-07T01:30:29Z,42.805,6.029,13.3008,4.60067,2470.194,2021-12-07T03:31:57Z
2021-12-07T01:33:32Z,42.805,6.029,13.3004,4.60039,2470.18,2021-12-07T03:35:00Z
2021-12-07T01:36:35Z,42.805,6.029,13.3010,4.60035,2470.203,2021-12-07T03:38:03Z
2021-12-07T01:39:38Z,42.805,6.029,13.3005,4.60036,2470.194,2021-12-07T03:41:06Z
2021-12-07T01:42:41Z,42.805,6.029,13.3000,4.60044,2470.156,2021-12-07T03:44:09Z
2021-12-07T01:45:45Z,42.805,6.029,13.3008,4.60052,2470.217,2021-12-07T03:47:12Z
2021-12-07T01:48:48Z,42.805,6.029,13.3010,4.60054,2470.156,2021-12-07T03:50:15Z
2021-12-07T01:51:51Z,42.805,6.029,13.2997,4.60046,2470.18,2021-12-07T03:53:19Z
2021-12-07T01:54:54Z,42.805,6.029,13.2998,4.60033,2470.194,2021-12-07T03:56:22Z
2021-12-07T01:57:57Z,42.805,6.029,13.2999,4.60040,2470.18,2021-12-07T03:59:25Z
2021-12-07T02:01:00Z,42.805,6.029,13.2996,4.60030,2470.18,2021-12-07T04:02:28Z
2021-12-07T02:04:03Z,42.805,6.029,13.2998,4.60038,2470.194,2021-12-07T04:05:31Z
2021-12-07T02:07:06Z,42.805,6.029,13.3004,4.60034,2470.203,2021-12-07T04:08:34Z
2021-12-07T02:10:09Z,42.805,6.029,13.2995,4.60025,2470.156,2021-12-07T04:11:37Z
2021-12-07T02:13:13Z,42.805,6.029,13.2997,4.60026,2470.156,2021-12-07T04:14:40Z
2021-12-07T02:16:16Z,42.805,6.029,13.2999,4.60029,2470.194,2021-12-07T04:17:43Z
2021-12-07T02:19:19Z,42.805,6.029,13.2997,4.60032,2470.18,2021-12-07T04:20:47Z
2021-12-07T02:22:22Z,42.805,6.029,13.3006,4.60041,2470.171,2021-12-07T04:23:50Z
2021-12-07T02:25:25Z,42.805,6.029,13.2998,4.60069,2470.18,2021-12-07T04:26:53Z
2021-12-07T02:28:28Z,42.805,6.029,13.3001,4.60028,2470.194,2021-12-07T04:29:56Z
2021-12-07T02:31:31Z,42.805,6.029,13.3006,4.60046,2470.156,2021-12-07T04:32:59Z
2021-12-07T02:34:34Z,42.805,6.029,13.3001,4.60041,2470.156,2021-12-07T04:36:02Z
2021-12-07T02:37:38Z,42.805,6.029,13.3000,4.60045,2470.171,2021-12-07T04:39:05Z
2021-12-07T02:40:41Z,42.805,6.029,13.2996,4.60035,2470.171,2021-12-07T04:42:08Z
2021-12-07T02:43:44Z,42.805,6.029,13.3006,4.60041,2470.171,2021-12-07T04:45:12Z
2021-12-07T02:46:47Z,42.805,6.029,13.3004,4.60047,2470.156,2021-12-07T04:48:15Z
2021-12-07T02:49:50Z,42.805,6.029,13.3001,4.60044,2470.133,2021-12-07T04:51:18Z
2021-12-07T02:52:53Z,42.805,6.029,13.3001,4.60042,2470.147,2021-12-07T04:54:21Z
2021-12-07T02:55:56Z,42.805,6.029,13.3006,4.60033,2470.133,2021-12-07T04:57:24Z
2021-12-07T02:58:59Z,42.805,6.029,13.3001,4.60037,2470.143,2021-12-07T05:00:27Z
2021-12-07T03:02:02Z,42.805,6.029,13.3004,4.60049,2470.11,2021-12-07T05:03:30Z
2021-12-07T03:05:06Z,42.805,6.029,13.3000,4.60062,2470.156,2021-12-07T05:06:33Z
2021-12-07T03:08:09Z,42.805,6.029,13.3008,4.60046,2470.18,2021-12-07T05:09:36Z
2021-12-07T03:11:12Z,42.805,6.029,13.3011,4.60044,2470.133,2021-12-07T05:12:40Z
2021-12-07T03:14:15Z,42.805,6.029,13.2996,4.60036,2470.156,2021-12-07T05:15:43Z
2021-12-07T03:17:18Z,42.805,6.029,13.3000,4.60031,2470.133,2021-12-07T05:18:46Z
2021-12-07T03:20:21Z,42.805,6.029,13.3004,4.60034,2470.133,2021-12-07T05:21:49Z
2021-12-07T03:23:24Z,42.805,6.029,13.3004,4.60041,2470.133,2021-12-07T05:24:52Z
2021-12-07T03:26:27Z,42.805,6.029,13.3002,4.60037,2470.147,2021-12-07T05:27:55Z
2021-12-07T03:29:31Z,42.805,6.029,13.2998,4.60031,2470.171,2021-12-07T05:30:58Z
2021-12-07T03:32:34Z,42.805,6.029,13.3003,4.60038,2470.171,2021-12-07T05:34:01Z
2021-12-07T03:35:37Z,42.805,6.029,13.2998,4.60054,2470.133,2021-12-07T05:37:05Z
2021-12-07T03:38:40Z,42.805,6.029,13.2999,4.60043,2470.156,2021-12-07T05:40:08Z
2021-12-07T03:41:43Z,42.805,6.029,13.3005,4.60036,2470.124,2021-12-07T05:43:11Z
2021-12-07T03:44:46Z,42.805,6.029,13.2998,4.60036,2470.147,2021-12-07T05:46:14Z
2021-12-07T03:47:49Z,42.805,6.029,13.3004,4.60039,2470.11,2021-12-07T05:49:17Z
2021-12-07T03:50:52Z,42.805,6.029,13.2995,4.60031,2470.156,2021-12-07T05:52:20Z
2021-12-07T03:53:55Z,42.805,6.029,13.2999,4.60031,2470.156,2021-12-07T05:55:23Z
2021-12-07T03:56:59Z,42.805,6.029,13.3011,4.60059,2470.171,2021-12-07T05:58:26Z
2021-12-07T04:00:02Z,42.805,6.029,13.3009,4.60040,2470.124,2021-12-07T06:01:29Z
2021-12-07T04:03:05Z,42.805,6.029,13.3007,4.60064,2470.11,2021-12-07T06:04:33Z
2021-12-07T04:06:08Z,42.805,6.029,13.2996,4.60057,2470.11,2021-12-07T06:07:36Z
2021-12-07T04:09:11Z,42.805,6.029,13.2999,4.60035,2470.124,2021-12-07T06:10:39Z
2021-12-07T04:12:14Z,42.805,6.029,13.3001,4.60046,2470.147,2021-12-07T06:13:42Z
2021-12-07T04:15:17Z,42.805,6.029,13.3000,4.60035,2470.147,2021-12-07T06:16:45Z
2021-12-07T04:18:20Z,42.805,6.029,13.3000,4.60036,2470.133,2021-12-07T06:19:48Z
2021-12-07T04:21:24Z,42.805,6.029,13.3003,4.60046,2470.171,2021-12-07T06:22:51Z
2021-12-07T04:24:27Z,42.805,6.029,13.3006,4.60061,2470.156,2021-12-07T06:25:54Z
2021-12-07T04:27:30Z,42.805,6.029,13.2998,4.60031,2470.189,2021-12-07T06:28:58Z
2021-12-07T04:30:33Z,42.805,6.029,13.2998,4.60029,2470.156,2021-12-07T06:32:01Z
2021-12-07T04:33:36Z,42.805,6.029,13.3000,4.60036,2470.156,2021-12-07T06:35:04Z
2021-12-07T04:36:39Z,42.805,6.029,13.2998,4.60029,2470.133,2021-12-07T06:38:07Z
2021-12-07T04:39:42Z,42.805,6.029,13.3003,4.60044,2470.156,2021-12-07T06:41:10Z
2021-12-07T04:42:45Z,42.805,6.029,13.2999,4.60036,2470.194,2021-12-07T06:44:13Z
2021-12-07T04:45:48Z,42.805,6.029,13.2998,4.60033,2470.171,2021-12-07T06:47:16Z
2021-12-07T04:48:52Z,42.805,6.029,13.3004,4.60057,2470.156,2021-12-07T06:50:19Z
2021-12-07T04:51:55Z,42.805,6.029,13.3008,4.60049,2470.156,2021-12-07T06:53:22Z
2021-12-07T04:54:58Z,42.805,6.029,13.2996,4.60037,2470.194,2021-12-07T06:56:26Z
2021-12-07T04:58:01Z,42.805,6.029,13.3002,4.60044,2470.156,2021-12-07T06:59:29Z
2021-12-07T05:01:04Z,42.805,6.029,13.3004,4.60059,2470.18,2021-12-07T07:02:32Z
2021-12-07T05:04:07Z,42.805,6.029,13.3000,4.60059,2470.171,2021-12-07T07:05:35Z
2021-12-07T05:07:10Z,42.805,6.029,13.2996,4.60043,2470.203,2021-12-07T07:08:38Z
2021-12-07T05:10:13Z,42.805,6.029,13.2998,4.60053,2470.194,2021-12-07T07:11:41Z
2021-12-07T05:13:17Z,42.805,6.029,13.2998,4.60045,2470.194,2021-12-07T07:14:44Z
2021-12-07T05:16:20Z,42.805,6.029,13.2997,4.60037,2470.194,2021-12-07T07:17:47Z
2021-12-07T05:19:23Z,42.805,6.029,13.3002,4.60046,2470.217,2021-12-07T07:20:51Z
2021-12-07T05:22:26Z,42.805,6.029,13.3006,4.60057,2470.203,2021-12-07T07:23:54Z
2021-12-07T05:25:29Z,42.805,6.029,13.3005,4.60049,2470.203,2021-12-07T07:26:57Z
2021-12-07T05:28:32Z,42.805,6.029,13.3014,4.60087,2470.227,2021-12-07T07:30:00Z
2021-12-07T05:31:35Z,42.805,6.029,13.3013,4.60051,2470.217,2021-12-07T07:33:03Z
2021-12-07T05:34:38Z,42.805,6.029,13.3008,4.60062,2470.203,2021-12-07T07:36:06Z
2021-12-07T05:37:41Z,42.805,6.029,13.2998,4.60046,2470.227,2021-12-07T07:39:09Z
2021-12-07T05:40:45Z,42.805,6.029,13.3004,4.60052,2470.203,2021-12-07T07:42:12Z
2021-12-07T05:43:48Z,42.805,6.029,13.3006,4.60062,2470.227,2021-12-07T07:45:15Z
2021-12-07T05:46:51Z,42.805,6.029,13.3006,4.60049,2470.227,2021-12-07T07:48:19Z
2021-12-07T05:49:54Z,42.805,6.029,13.2997,4.60048,2470.25,2021-12-07T07:51:22Z
2021-12-07T05:52:57Z,42.805,6.029,13.3001,4.60068,2470.264,2021-12-07T07:54:25Z
2021-12-07T05:56:00Z,42.805,6.029,13.2999,4.60044,2470.264,2021-12-07T07:57:28Z
2021-12-07T05:59:03Z,42.805,6.029,13.3002,4.60037,2470.25,2021-12-07T08:00:31Z
2021-12-07T06:02:06Z,42.805,6.029,13.3006,4.60064,2470.227,2021-12-07T08:03:34Z
2021-12-07T06:05:10Z,42.805,6.029,13.3003,4.60045,2470.25,2021-12-07T08:06:37Z
2021-12-07T06:08:13Z,42.805,6.029,13.3004,4.60057,2470.273,2021-12-07T08:09:40Z
2021-12-07T06:11:16Z,42.805,6.029,13.3001,4.60048,2470.297,2021-12-07T08:12:44Z
2021-12-07T06:14:19Z,42.805,6.029,13.3002,4.60055,2470.264,2021-12-07T08:15:47Z
2021-12-07T06:17:22Z,42.805,6.029,13.3007,4.60048,2470.297,2021-12-07T08:18:50Z
2021-12-07T06:20:25Z,42.805,6.029,13.3000,4.60041,2470.264,2021-12-07T08:21:53Z
2021-12-07T06:23:28Z,42.805,6.029,13.3004,4.60075,2470.31,2021-12-07T08:24:56Z
2021-12-07T06:26:31Z,42.805,6.029,13.3004,4.60058,2470.25,2021-12-07T08:27:59Z
2021-12-07T06:29:34Z,42.805,6.029,13.3005,4.60062,2470.287,2021-12-07T08:31:02Z
2021-12-07T06:32:38Z,42.805,6.029,13.3004,4.60079,2470.264,2021-12-07T08:34:05Z
2021-12-07T06:35:41Z,42.805,6.029,13.3006,4.60052,2470.31,2021-12-07T08:37:08Z
2021-12-07T06:38:44Z,42.805,6.029,13.2993,4.60035,2470.334,2021-12-07T08:40:12Z
2021-12-07T06:41:47Z,42.805,6.029,13.3010,4.60060,2470.297,2021-12-07T08:43:15Z
2021-12-07T06:44:50Z,42.805,6.029,13.3006,4.60049,2470.32,2021-12-07T08:46:18Z
2021-12-07T06:47:53Z,42.805,6.029,13.3000,4.60043,2470.32,2021-12-07T08:49:21Z
2021-12-07T06:50:56Z,42.805,6.029,13.3021,4.60069,2470.31,2021-12-07T08:52:24Z
2021-12-07T06:53:59Z,42.805,6.029,13.3000,4.60040,2470.32,2021-12-07T08:55:27Z
2021-12-07T06:57:02Z,42.805,6.029,13.3000,4.60061,2470.334,2021-12-07T08:58:30Z
2021-12-07T07:00:06Z,42.805,6.029,13.3001,4.60069,2470.357,2021-12-07T09:01:33Z
2021-12-07T07:03:09Z,42.805,6.029,13.2997,4.60077,2470.32,2021-12-07T09:04:37Z
2021-12-07T07:06:12Z,42.805,6.029,13.2997,4.60064,2470.357,2021-12-07T09:07:40Z
2021-12-07T07:09:15Z,42.805,6.029,13.3010,4.60081,2470.343,2021-12-07T09:10:43Z
2021-12-07T07:12:18Z,42.805,6.029,13.3003,4.60083,2470.38,2021-12-07T09:13:46Z
2021-12-07T07:15:21Z,42.805,6.029,13.3007,4.60082,2470.357,2021-12-07T09:16:49Z
2021-12-07T07:18:24Z,42.805,6.029,13.3009,4.60076,2470.38,2021-12-07T09:19:52Z
2021-12-07T07:21:27Z,42.805,6.029,13.3019,4.60066,2470.343,2021-12-07T09:22:55Z
2021-12-07T07:24:31Z,42.805,6.029,13.3009,4.60082,2470.366,2021-12-07T09:25:58Z
2021-12-07T07:27:34Z,42.805,6.029,13.3018,4.60060,2470.357,2021-12-07T09:29:01Z
2021-12-07T07:30:37Z,42.805,6.029,13.3003,4.60074,2470.366,2021-12-07T09:32:05Z
2021-12-07T07:33:40Z,42.805,6.029,13.3006,4.60069,2470.38,2021-12-07T09:35:08Z
2021-12-07T07:36:43Z,42.805,6.029,13.2999,4.60054,2470.366,2021-12-07T09:38:11Z
2021-12-07T07:39:46Z,42.805,6.029,13.3028,4.60045,2470.38,2021-12-07T09:41:14Z
2021-12-07T07:42:49Z,42.805,6.029,13.3024,4.60086,2470.38,2021-12-07T09:44:17Z
2021-12-07T07:45:52Z,42.805,6.029,13.3011,4.60086,2470.38,2021-12-07T09:47:20Z
2021-12-07T07:48:55Z,42.805,6.029,13.3006,4.60066,2470.39,2021-12-07T09:50:23Z
2021-12-07T07:51:59Z,42.805,6.029,13.3033,4.60081,2470.413,2021-12-07T09:53:26Z
2021-12-07T07:55:02Z,42.805,6.029,13.3011,4.60078,2470.427,2021-12-07T09:56:30Z
2021-12-07T07:58:05Z,42.805,6.029,13.3011,4.60066,2470.39,2021-12-07T09:59:33Z
2021-12-07T08:01:08Z,42.805,6.029,13.3015,4.60084,2470.39,2021-12-07T10:02:36Z
2021-12-07T08:04:11Z,42.805,6.029,13.3008,4.60070,2470.413,2021-12-07T10:05:39Z
2021-12-07T08:07:14Z,42.805,6.029,13.3014,4.60075,2470.39,2021-12-07T10:08:42Z
2021-12-07T08:10:17Z,42.805,6.029,13.2999,4.60059,2470.404,2021-12-07T10:11:45Z
2021-12-07T08:13:20Z,42.805,6.029,13.3006,4.60064,2470.427,2021-12-07T10:14:48Z
2021-12-07T08:16:24Z,42.805,6.029,13.3019,4.60072,2470.427,2021-12-07T10:17:51Z
2021-12-07T08:19:27Z,42.805,6.029,13.3011,4.60072,2470.437,2021-12-07T10:20:54Z
2021-12-07T08:22:30Z,42.805,6.029,13.3019,4.60081,2470.413,2021-12-07T10:23:58Z
2021-12-07T08:25:33Z,42.805,6.029,13.3011,4.60079,2470.413,2021-12-07T10:27:01Z
2021-12-07T08:28:36Z,42.805,6.029,13.3010,4.60077,2470.427,2021-12-07T10:30:04Z
2021-12-07T08:31:39Z,42.805,6.029,13.3005,4.60092,2470.427,2021-12-07T10:33:07Z
2021-12-07T08:34:42Z,42.805,6.029,13.3027,4.60104,2470.45,2021-12-07T10:36:10Z
2021-12-07T08:37:45Z,42.805,6.029,13.3009,4.60094,2470.437,2021-12-07T10:39:13Z
2021-12-07T08:40:49Z,42.805,6.029,13.3012,4.60088,2470.437,2021-12-07T10:42:16Z
2021-12-07T08:43:52Z,42.805,6.029,13.3020,4.60084,2470.45,2021-12-07T10:45:19Z
2021-12-07T08:46:55Z,42.805,6.029,13.3011,4.60102,2470.413,2021-12-07T10:48:23Z
2021-12-07T08:49:58Z,42.805,6.029,13.3006,4.60080,2470.413,2021-12-07T10:51:26Z
2021-12-07T08:53:01Z,42.805,6.029,13.3009,4.60097,2470.45,2021-12-07T10:54:29Z
2021-12-07T08:56:04Z,42.805,6.029,13.3006,4.60081,2470.45,2021-12-07T10:57:32Z
2021-12-07T08:59:07Z,42.805,6.029,13.3000,4.60039,2470.46,2021-12-07T11:00:35Z
2021-12-07T09:02:10Z,42.805,6.029,13.3022,4.60079,2470.45,2021-12-07T11:03:38Z
2021-12-07T09:05:14Z,42.805,6.029,13.3026,4.60068,2470.437,2021-12-07T11:06:41Z
2021-12-07T09:08:17Z,42.805,6.029,13.3012,4.60077,2470.437,2021-12-07T11:09:44Z
2021-12-07T09:11:20Z,42.805,6.029,13.3012,4.60077,2470.437,2021-12-07T11:12:48Z
2021-12-07T09:14:23Z,42.805,6.029,13.3012,4.60089,2470.46,2021-12-07T11:15:51Z
2021-12-07T09:17:26Z,42.805,6.029,13.3029,4.60079,2470.45,2021-12-07T11:18:54Z
2021-12-07T09:20:29Z,42.805,6.029,13.3019,4.60075,2470.45,2021-12-07T11:21:57Z
2021-12-07T09:23:32Z,42.805,6.029,13.3024,4.60072,2470.427,2021-12-07T11:25:00Z
2021-12-07T09:26:35Z,42.805,6.029,13.3008,4.60053,2470.427,2021-12-07T11:28:03Z
2021-12-07T09:29:39Z,42.805,6.029,13.3015,4.60081,2470.413,2021-12-07T11:31:06Z
2021-12-07T09:32:42Z,42.805,6.029,13.3018,4.60058,2470.427,2021-12-07T11:34:09Z
2021-12-07T09:35:45Z,42.805,6.029,13.3018,4.60071,2470.45,2021-12-07T11:37:13Z
2021-12-07T09:38:48Z,42.805,6.029,13.3025,4.60047,2470.437,2021-12-07T11:40:16Z
2021-12-07T09:41:51Z,42.805,6.029,13.3017,4.60031,2470.46,2021-12-07T11:43:19Z
2021-12-07T09:44:54Z,42.805,6.029,13.3015,4.60079,2470.437,2021-12-07T11:46:22Z
2021-12-07T09:47:57Z,42.805,6.029,13.3003,4.60047,2470.413,2021-12-07T11:49:25Z
2021-12-07T09:51:00Z,42.805,6.029,13.3011,4.60039,2470.413,2021-12-07T11:52:28Z
2021-12-07T09:54:03Z,42.805,6.029,13.3015,4.60039,2470.437,2021-12-07T11:55:31Z
2021-12-07T09:57:07Z,42.805,6.029,13.3019,4.60058,2470.45,2021-12-07T11:58:34Z
2021-12-07T10:00:10Z,42.805,6.029,13.3011,4.60074,2470.45,2021-12-07T12:01:38Z
2021-12-07T10:03:13Z,42.805,6.029,13.3013,4.60072,2470.437,2021-12-07T12:04:41Z
2021-12-07T10:06:16Z,42.805,6.029,13.3001,4.60055,2470.45,2021-12-07T12:07:44Z
2021-12-07T10:09:19Z,42.805,6.029,13.3008,4.60062,2470.413,2021-12-07T12:10:47Z
2021-12-07T10:12:22Z,42.805,6.029,13.3015,4.60072,2470.437,2021-12-07T12:13:50Z
2021-12-07T10:15:25Z,42.805,6.029,13.3019,4.60061,2470.427,2021-12-07T12:16:53Z
2021-12-07T10:18:28Z,42.805,6.029,13.3013,4.60072,2470.413,2021-12-07T12:19:56Z
2021-12-07T10:21:32Z,42.805,6.029,13.3014,4.60061,2470.46,2021-12-07T12:22:59Z
2021-12-07T10:24:35Z,42.805,6.029,13.3015,4.60055,2470.45,2021-12-07T12:26:03Z
2021-12-07T10:27:38Z,42.805,6.029,13.3016,4.60050,2470.437,2021-12-07T12:29:06Z
2021-12-07T10:30:41Z,42.805,6.029,13.3014,4.60064,2470.404,2021-12-07T12:32:09Z
2021-12-07T10:33:44Z,42.805,6.029,13.3012,4.60052,2470.413,2021-12-07T12:35:12Z
2021-12-07T10:36:47Z,42.805,6.029,13.3011,4.60079,2470.404,2021-12-07T12:38:15Z
2021-12-07T10:39:50Z,42.805,6.029,13.3011,4.60060,2470.437,2021-12-07T12:41:18Z
2021-12-07T10:42:53Z,42.805,6.029,13.3011,4.60064,2470.437,2021-12-07T12:44:21Z
2021-12-07T10:45:57Z,42.805,6.029,13.3008,4.60064,2470.413,2021-12-07T12:47:24Z
2021-12-07T10:49:00Z,42.805,6.029,13.3006,4.60066,2470.437,2021-12-07T12:50:28Z
2021-12-07T10:52:03Z,42.805,6.029,13.3010,4.60036,2470.437,2021-12-07T12:53:31Z
2021-12-07T10:55:06Z,42.805,6.029,13.3011,4.60052,2470.404,2021-12-07T12:56:34Z
2021-12-07T10:58:09Z,42.805,6.029,13.3011,4.60050,2470.413,2021-12-07T12:59:37Z
2021-12-07T11:01:12Z,42.805,6.029,13.3003,4.60062,2470.413,2021-12-07T13:02:40Z
2021-12-07T11:04:15Z,42.805,6.029,13.3006,4.60054,2470.413,2021-12-07T13:05:43Z
2021-12-07T11:07:18Z,42.805,6.029,13.3008,4.60039,2470.413,2021-12-07T13:08:46Z
2021-12-07T11:10:22Z,42.805,6.029,13.3000,4.60046,2470.427,2021-12-07T13:11:49Z
2021-12-07T11:13:25Z,42.805,6.029,13.3006,4.60038,2470.39,2021-12-07T13:14:53Z
2021-12-07T11:16:28Z,42.805,6.029,13.3006,4.60056,2470.427,2021-12-07T13:17:56Z
2021-12-07T11:19:31Z,42.805,6.029,13.3010,4.60057,2470.413,2021-12-07T13:20:59Z
2021-12-07T11:22:34Z,42.805,6.029,13.3007,4.60037,2470.404,2021-12-07T13:24:02Z
2021-12-07T11:25:37Z,42.805,6.029,13.3006,4.60046,2470.39,2021-12-07T13:27:05Z
2021-12-07T11:28:40Z,42.805,6.029,13.3008,4.60049,2470.404,2021-12-07T13:30:08Z
2021-12-07T11:31:43Z,42.805,6.029,13.3007,4.60046,2470.413,2021-12-07T13:33:11Z
2021-12-07T11:34:47Z,42.805,6.029,13.3005,4.60049,2470.404,2021-12-07T13:36:14Z
2021-12-07T11:37:50Z,42.805,6.029,13.3014,4.60062,2470.404,2021-12-07T13:39:18Z
2021-12-07T11:40:53Z,42.805,6.029,13.3016,4.60062,2470.39,2021-12-07T13:42:21Z
2021-12-07T11:43:56Z,42.805,6.029,13.3013,4.60047,2470.39,2021-12-07T13:45:24Z
2021-12-07T11:46:59Z,42.805,6.029,13.3004,4.60047,2470.39,2021-12-07T13:48:27Z
2021-12-07T11:50:02Z,42.805,6.029,13.3004,4.60045,2470.38,2021-12-07T13:51:30Z
2021-12-07T11:53:05Z,42.805,6.029,13.3001,4.60042,2470.39,2021-12-07T13:54:33Z
2021-12-07T11:56:08Z,42.805,6.029,13.3005,4.60052,2470.39,2021-12-07T13:57:36Z
2021-12-07T11:59:12Z,42.805,6.029,13.2998,4.60052,2470.366,2021-12-07T14:00:39Z
2021-12-07T12:02:15Z,42.805,6.029,13.2996,4.60058,2470.38,2021-12-07T14:03:43Z
2021-12-07T12:05:18Z,42.805,6.029,13.3009,4.60056,2470.39,2021-12-07T14:06:46Z
2021-12-07T12:08:21Z,42.805,6.029,13.3007,4.60026,2470.404,2021-12-07T14:09:49Z
2021-12-07T12:11:24Z,42.805,6.029,13.3009,4.60034,2470.404,2021-12-07T14:12:52Z
2021-12-07T12:14:27Z,42.805,6.029,13.3011,4.60033,2470.366,2021-12-07T14:15:55Z
2021-12-07T12:17:30Z,42.805,6.029,13.2999,4.60038,2470.38,2021-12-07T14:18:58Z
2021-12-07T12:20:33Z,42.805,6.029,13.2999,4.60044,2470.343,2021-12-07T14:22:01Z
2021-12-07T12:23:37Z,42.805,6.029,13.2999,4.60043,2470.343,2021-12-07T14:25:04Z
2021-12-07T12:26:40Z,42.805,6.029,13.2997,4.60044,2470.39,2021-12-07T14:28:08Z
2021-12-07T12:29:43Z,42.805,6.029,13.3002,4.60054,2470.366,2021-12-07T14:31:11Z
2021-12-07T12:32:46Z,42.805,6.029,13.3004,4.60056,2470.343,2021-12-07T14:34:14Z
2021-12-07T12:35:49Z,42.805,6.029,13.3004,4.60047,2470.357,2021-12-07T14:37:17Z
2021-12-07T12:38:52Z,42.805,6.029,13.2997,4.60038,2470.343,2021-12-07T14:40:20Z
2021-12-07T12:41:55Z,42.805,6.029,13.2999,4.60031,2470.38,2021-12-07T14:43:23Z
2021-12-07T12:44:58Z,42.805,6.029,13.3002,4.60042,2470.366,2021-12-07T14:46:26Z
2021-12-07T12:48:02Z,42.805,6.029,13.3000,4.60041,2470.38,2021-12-07T14:49:29Z
2021-12-07T12:51:05Z,42.805,6.029,13.3000,4.60033,2470.366,2021-12-07T14:52:32Z
2021-12-07T12:54:08Z,42.805,6.029,13.2996,4.60031,2470.343,2021-12-07T14:55:36Z
2021-12-07T12:57:11Z,42.805,6.029,13.2997,4.60038,2470.32,2021-12-07T14:58:39Z
2021-12-07T13:00:14Z,42.805,6.029,13.2997,4.60047,2470.334,2021-12-07T15:01:42Z
2021-12-07T13:03:17Z,42.805,6.029,13.3000,4.60032,2470.334,2021-12-07T15:04:45Z
2021-12-07T13:06:20Z,42.805,6.029,13.3002,4.60033,2470.343,2021-12-07T15:07:48Z
2021-12-07T13:09:23Z,42.805,6.029,13.3002,4.60031,2470.343,2021-12-07T15:10:51Z
2021-12-07T13:12:26Z,42.805,6.029,13.2996,4.60039,2470.297,2021-12-07T15:13:54Z
2021-12-07T13:15:30Z,42.805,6.029,13.3001,4.60031,2470.334,2021-12-07T15:16:57Z
2021-12-07T13:18:33Z,42.805,6.029,13.2997,4.60026,2470.343,2021-12-07T15:20:01Z
2021-12-07T13:21:36Z,42.805,6.029,13.3000,4.60034,2470.334,2021-12-07T15:23:04Z
2021-12-07T13:24:39Z,42.805,6.029,13.3000,4.60028,2470.357,2021-12-07T15:26:07Z
2021-12-07T13:27:42Z,42.805,6.029,13.3000,4.60040,2470.32,2021-12-07T15:29:10Z
2021-12-07T13:30:45Z,42.805,6.029,13.3000,4.60033,2470.334,2021-12-07T15:32:13Z
2021-12-07T13:33:48Z,42.805,6.029,13.2998,4.60035,2470.297,2021-12-07T15:35:16Z
2021-12-07T13:36:51Z,42.805,6.029,13.2999,4.60033,2470.343,2021-12-07T15:38:19Z
2021-12-07T13:39:55Z,42.805,6.029,13.3009,4.60044,2470.32,2021-12-07T15:41:22Z
2021-12-07T13:42:58Z,42.805,6.029,13.2998,4.60038,2470.31,2021-12-07T15:44:26Z
2021-12-07T13:46:01Z,42.805,6.029,13.3000,4.60046,2470.32,2021-12-07T15:47:29Z
2021-12-07T13:49:04Z,42.805,6.029,13.3000,4.60029,2470.283,2021-12-07T15:50:32Z
2021-12-07T13:52:07Z,42.805,6.029,13.3000,4.60037,2470.334,2021-12-07T15:53:35Z
2021-12-07T13:55:10Z,42.805,6.029,13.2998,4.60034,2470.31,2021-12-07T15:56:38Z
2021-12-07T13:58:13Z,42.805,6.029,13.3003,4.60034,2470.273,2021-12-07T15:59:41Z
2021-12-07T14:01:16Z,42.805,6.029,13.3003,4.60040,2470.287,2021-12-07T16:02:44Z
2021-12-07T14:04:20Z,42.805,6.029,13.2999,4.60049,2470.334,2021-12-07T16:05:47Z
2021-12-07T14:07:23Z,42.805,6.029,13.2997,4.60028,2470.273,2021-12-07T16:08:51Z
2021-12-07T14:10:26Z,42.805,6.029,13.3004,4.60035,2470.297,2021-12-07T16:11:54Z
2021-12-07T14:13:29Z,42.805,6.029,13.2998,4.60025,2470.273,2021-12-07T16:14:57Z
2021-12-07T14:16:32Z,42.805,6.029,13.3007,4.60040,2470.287,2021-12-07T16:18:00Z
2021-12-07T14:19:35Z,42.805,6.029,13.3003,4.60048,2470.273,2021-12-07T16:21:03Z
2021-12-07T14:22:38Z,42.805,6.029,13.3003,4.60044,2470.287,2021-12-07T16:24:06Z
2021-12-07T14:25:41Z,42.805,6.029,13.3003,4.60054,2470.297,2021-12-07T16:27:09Z
2021-12-07T14:28:45Z,42.805,6.029,13.3003,4.60037,2470.31,2021-12-07T16:30:12Z
2021-12-07T14:31:48Z,42.805,6.029,13.3011,4.60046,2470.287,2021-12-07T16:33:16Z
2021-12-07T14:34:51Z,42.805,6.029,13.3002,4.60032,2470.264,2021-12-07T16:36:19Z
2021-12-07T14:37:54Z,42.805,6.029,13.2998,4.60032,2470.297,2021-12-07T16:39:22Z
2021-12-07T14:40:57Z,42.805,6.029,13.3004,4.60039,2470.287,2021-12-07T16:42:25Z
2021-12-07T14:44:00Z,42.805,6.029,13.3004,4.60039,2470.287,2021-12-07T16:45:28Z
2021-12-07T14:47:03Z,42.805,6.029,13.3002,4.60049,2470.25,2021-12-07T16:48:31Z
2021-12-07T14:50:06Z,42.805,6.029,13.3005,4.60037,2470.25,2021-12-07T16:51:34Z
2021-12-07T14:53:10Z,42.805,6.029,13.2998,4.60042,2470.273,2021-12-07T16:54:37Z
2021-12-07T14:56:13Z,42.805,6.029,13.3009,4.60041,2470.264,2021-12-07T16:57:41Z
2021-12-07T14:59:16Z,42.805,6.029,13.3003,4.60041,2470.25,2021-12-07T17:00:44Z
2021-12-07T15:02:19Z,42.805,6.029,13.3007,4.60062,2470.227,2021-12-07T17:03:47Z